sat.trackr.live / text

‹ back to catalog

STARLINK-35865

NORAD 67826 · 2026-033F

PAYLOAD ACTIVE UNKNOWN

§ Identity

Operator
Country
US
Launch date
2026-02-16
Launch site
AFETR
Launch vehicle
Mass (kg)
RCS (m²)

Purposes: comms

External: N2YO · Heavens-Above · Gunter

§ Orbital elements

Epoch: 2026-05-25T04:29:52.586016Z

Period
94.27 min
Inclination
43.0031°
Eccentricity
0.0001692
Mean motion
15.27584543 rev/d
Perigee alt
481.9 km
Apogee alt
484.2 km
Semi-major
6,861.2 km
B*
7.1766e-4
RAAN
195.0070°
Arg perigee
284.6523°
Mean anomaly
75.4141°
Rev number
1,637

§ Raw data

STARLINK-358651 67826U 26033F   26145.18741419  .00019541  00000+0  71766-3 0  99952 67826  43.0031 195.0070 0001692 284.6523  75.4141 15.27584543 16375

JSON: /api/v1/satellites/67826 · /tle

For live sub-satellite position, see the globe view (requires WebGL).

§ Visibility from observer

Set your observer location to see the next 7 days of passes ≥ 10°. The values pass through the URL so the page stays shareable.

No JS? Fill the form by hand. The geolocation button needs JavaScript.